contact:dominique.lefevre@mio.osupytheas.fr, maurice.libes@osupytheas.fr, didier.mallarino@osupytheas.fr
Project:EMSO http://www.emso-fr.org/EMSO-France
Depth: 2436.0 m
Title:EMSO Ligure Ouest : Data MII capteur MICROCAT
DateTime_Computer,Latitude,Longitude,Temperature,Conductivity,Pressure,DateTime_Instrument
DateTime_Computer,Latitude,Longitude,degC,S m-1,dbar,DateTime_Instrument
2022-03-31T00:00:09Z,42.805,6.029,13.3033,4.60086,2470.203,2022-3-31T02:01:46Z
2022-03-31T00:03:12Z,42.805,6.029,13.3027,4.60084,2470.194,2022-3-31T02:04:49Z
2022-03-31T00:06:15Z,42.805,6.029,13.3030,4.60082,2470.18,2022-3-31T02:07:52Z
2022-03-31T00:09:18Z,42.805,6.029,13.3034,4.60087,2470.194,2022-3-31T02:10:55Z
2022-03-31T00:12:21Z,42.805,6.029,13.3025,4.60077,2470.171,2022-3-31T02:13:58Z
2022-03-31T00:15:24Z,42.805,6.029,13.3024,4.60075,2470.217,2022-3-31T02:17:02Z
2022-03-31T00:18:27Z,42.805,6.029,13.3026,4.60077,2470.18,2022-3-31T02:20:05Z
2022-03-31T00:21:31Z,42.805,6.029,13.3023,4.60077,2470.194,2022-3-31T02:23:08Z
2022-03-31T00:24:34Z,42.805,6.029,13.3029,4.60082,2470.18,2022-3-31T02:26:11Z
2022-03-31T00:27:37Z,42.805,6.029,13.3031,4.60087,2470.18,2022-3-31T02:29:14Z
2022-03-31T00:30:40Z,42.805,6.029,13.3031,4.60079,2470.194,2022-3-31T02:32:17Z
2022-03-31T00:33:43Z,42.805,6.029,13.3036,4.60082,2470.143,2022-3-31T02:35:20Z
2022-03-31T00:36:46Z,42.805,6.029,13.3028,4.60074,2470.156,2022-3-31T02:38:23Z
2022-03-31T00:39:49Z,42.805,6.029,13.3030,4.60090,2470.156,2022-3-31T02:41:26Z
2022-03-31T00:42:52Z,42.805,6.029,13.3031,4.60088,2470.18,2022-3-31T02:44:30Z
2022-03-31T00:45:56Z,42.805,6.029,13.3026,4.60076,2470.18,2022-3-31T02:47:33Z
2022-03-31T00:48:59Z,42.805,6.029,13.3036,4.60079,2470.18,2022-3-31T02:50:36Z
2022-03-31T00:52:02Z,42.805,6.029,13.3030,4.60092,2470.194,2022-3-31T02:53:39Z
2022-03-31T00:55:05Z,42.805,6.029,13.3030,4.60085,2470.156,2022-3-31T02:56:42Z
2022-03-31T00:58:08Z,42.805,6.029,13.3032,4.60084,2470.171,2022-3-31T02:59:45Z
2022-03-31T01:01:11Z,42.805,6.029,13.3028,4.60079,2470.18,2022-3-31T03:02:48Z
2022-03-31T01:04:14Z,42.805,6.029,13.3024,4.60074,2470.171,2022-3-31T03:05:51Z
2022-03-31T01:07:17Z,42.805,6.029,13.3022,4.60081,2470.18,2022-3-31T03:08:55Z
2022-03-31T01:10:21Z,42.805,6.029,13.3026,4.60076,2470.194,2022-3-31T03:11:58Z
2022-03-31T01:13:24Z,42.805,6.029,13.3027,4.60076,2470.171,2022-3-31T03:15:01Z
2022-03-31T01:16:27Z,42.805,6.029,13.3029,4.60084,2470.171,2022-3-31T03:18:04Z
2022-03-31T01:19:30Z,42.805,6.029,13.3022,4.60078,2470.171,2022-3-31T03:21:07Z
2022-03-31T01:22:33Z,42.805,6.029,13.3024,4.60068,2470.156,2022-3-31T03:24:10Z
2022-03-31T01:25:36Z,42.805,6.029,13.3026,4.60072,2470.156,2022-3-31T03:27:13Z
2022-03-31T01:28:39Z,42.805,6.029,13.3030,4.60089,2470.18,2022-3-31T03:30:16Z
2022-03-31T01:31:42Z,42.805,6.029,13.3034,4.60084,2470.156,2022-3-31T03:33:20Z
2022-03-31T01:34:45Z,42.805,6.029,13.3022,4.60082,2470.194,2022-3-31T03:36:23Z
2022-03-31T01:37:49Z,42.805,6.029,13.3030,4.60082,2470.156,2022-3-31T03:39:26Z
2022-03-31T01:40:52Z,42.805,6.029,13.3025,4.60078,2470.156,2022-3-31T03:42:29Z
2022-03-31T01:43:55Z,42.805,6.029,13.3024,4.60073,2470.194,2022-3-31T03:45:32Z
2022-03-31T01:46:58Z,42.805,6.029,13.3029,4.60079,2470.217,2022-3-31T03:48:35Z
2022-03-31T01:50:01Z,42.805,6.029,13.3032,4.60075,2470.18,2022-3-31T03:51:38Z
2022-03-31T01:53:04Z,42.805,6.029,13.3028,4.60074,2470.156,2022-3-31T03:54:41Z
2022-03-31T01:56:07Z,42.805,6.029,13.3029,4.60065,2470.217,2022-3-31T03:57:44Z
2022-03-31T01:59:10Z,42.805,6.029,13.3026,4.60078,2470.194,2022-3-31T04:00:48Z
2022-03-31T02:02:14Z,42.805,6.029,13.3027,4.60085,2470.18,2022-3-31T04:03:51Z
2022-03-31T02:05:17Z,42.805,6.029,13.3031,4.60085,2470.18,2022-3-31T04:06:54Z
2022-03-31T02:08:20Z,42.805,6.029,13.3031,4.60084,2470.18,2022-3-31T04:09:57Z
2022-03-31T02:11:23Z,42.805,6.029,13.3029,4.60072,2470.18,2022-3-31T04:13:00Z
2022-03-31T02:14:26Z,42.805,6.029,13.3031,4.60081,2470.18,2022-3-31T04:16:03Z
2022-03-31T02:17:29Z,42.805,6.029,13.3025,4.60077,2470.24,2022-3-31T04:19:06Z
2022-03-31T02:20:32Z,42.805,6.029,13.3026,4.60073,2470.194,2022-3-31T04:22:09Z
2022-03-31T02:23:35Z,42.805,6.029,13.3030,4.60076,2470.156,2022-3-31T04:25:13Z
2022-03-31T02:26:39Z,42.805,6.029,13.3026,4.60077,2470.217,2022-3-31T04:28:16Z
2022-03-31T02:29:42Z,42.805,6.029,13.3024,4.60081,2470.18,2022-3-31T04:31:19Z
2022-03-31T02:32:45Z,42.805,6.029,13.3038,4.60077,2470.194,2022-3-31T04:34:22Z
2022-03-31T02:35:48Z,42.805,6.029,13.3029,4.60072,2470.203,2022-3-31T04:37:25Z
2022-03-31T02:38:51Z,42.805,6.029,13.3031,4.60079,2470.203,2022-3-31T04:40:28Z
2022-03-31T02:41:54Z,42.805,6.029,13.3032,4.60074,2470.24,2022-3-31T04:43:31Z
2022-03-31T02:44:57Z,42.805,6.029,13.3025,4.60076,2470.18,2022-3-31T04:46:34Z
2022-03-31T02:48:00Z,42.805,6.029,13.3026,4.60079,2470.217,2022-3-31T04:49:38Z
2022-03-31T02:51:03Z,42.805,6.029,13.3029,4.60072,2470.194,2022-3-31T04:52:41Z
2022-03-31T02:54:07Z,42.805,6.029,13.3026,4.60082,2470.217,2022-3-31T04:55:44Z
2022-03-31T02:57:10Z,42.805,6.029,13.3034,4.60079,2470.227,2022-3-31T04:58:47Z
2022-03-31T03:00:13Z,42.805,6.029,13.3032,4.60077,2470.24,2022-3-31T05:01:50Z
2022-03-31T03:03:16Z,42.805,6.029,13.3020,4.60067,2470.264,2022-3-31T05:04:53Z
2022-03-31T03:06:19Z,42.805,6.029,13.3029,4.60073,2470.24,2022-3-31T05:07:56Z
2022-03-31T03:09:22Z,42.805,6.029,13.3027,4.60079,2470.264,2022-3-31T05:10:59Z
2022-03-31T03:12:25Z,42.805,6.029,13.3024,4.60078,2470.203,2022-3-31T05:14:02Z
2022-03-31T03:15:28Z,42.805,6.029,13.3029,4.60075,2470.24,2022-3-31T05:17:06Z
2022-03-31T03:18:32Z,42.805,6.029,13.3029,4.60081,2470.264,2022-3-31T05:20:09Z
2022-03-31T03:21:35Z,42.805,6.029,13.3028,4.60087,2470.25,2022-3-31T05:23:12Z
2022-03-31T03:24:38Z,42.805,6.029,13.3028,4.60072,2470.264,2022-3-31T05:26:15Z
2022-03-31T03:27:41Z,42.805,6.029,13.3026,4.60079,2470.287,2022-3-31T05:29:18Z
2022-03-31T03:30:44Z,42.805,6.029,13.3023,4.60072,2470.25,2022-3-31T05:32:21Z
2022-03-31T03:33:47Z,42.805,6.029,13.3026,4.60067,2470.273,2022-3-31T05:35:24Z
2022-03-31T03:36:50Z,42.805,6.029,13.3024,4.60072,2470.264,2022-3-31T05:38:27Z
2022-03-31T03:39:53Z,42.805,6.029,13.3026,4.60072,2470.273,2022-3-31T05:41:31Z
2022-03-31T03:42:57Z,42.805,6.029,13.3029,4.60076,2470.25,2022-3-31T05:44:34Z
2022-03-31T03:46:00Z,42.805,6.029,13.3030,4.60078,2470.287,2022-3-31T05:47:37Z
2022-03-31T03:49:03Z,42.805,6.029,13.3029,4.60077,2470.273,2022-3-31T05:50:40Z
2022-03-31T03:52:06Z,42.805,6.029,13.3029,4.60078,2470.273,2022-3-31T05:53:43Z
2022-03-31T03:55:09Z,42.805,6.029,13.3028,4.60074,2470.287,2022-3-31T05:56:46Z
2022-03-31T03:58:12Z,42.805,6.029,13.3029,4.60079,2470.273,2022-3-31T05:59:49Z
2022-03-31T04:01:15Z,42.805,6.029,13.3021,4.60079,2470.32,2022-3-31T06:02:52Z
2022-03-31T04:04:18Z,42.805,6.029,13.3025,4.60077,2470.297,2022-3-31T06:05:56Z
2022-03-31T04:07:22Z,42.805,6.029,13.3029,4.60077,2470.334,2022-3-31T06:08:59Z
2022-03-31T04:10:25Z,42.805,6.029,13.3029,4.60080,2470.334,2022-3-31T06:12:02Z
2022-03-31T04:13:28Z,42.805,6.029,13.3034,4.60084,2470.283,2022-3-31T06:15:05Z
2022-03-31T04:16:31Z,42.805,6.029,13.3031,4.60077,2470.357,2022-3-31T06:18:08Z
2022-03-31T04:19:34Z,42.805,6.029,13.3023,4.60083,2470.343,2022-3-31T06:21:11Z
2022-03-31T04:22:37Z,42.805,6.029,13.3034,4.60077,2470.334,2022-3-31T06:24:14Z
2022-03-31T04:25:40Z,42.805,6.029,13.3029,4.60076,2470.343,2022-3-31T06:27:17Z
2022-03-31T04:28:43Z,42.805,6.029,13.3034,4.60077,2470.32,2022-3-31T06:30:21Z
2022-03-31T04:31:46Z,42.805,6.029,13.3030,4.60077,2470.32,2022-3-31T06:33:24Z
2022-03-31T04:34:50Z,42.805,6.029,13.3028,4.60074,2470.297,2022-3-31T06:36:27Z
2022-03-31T04:37:53Z,42.805,6.029,13.3024,4.60079,2470.343,2022-3-31T06:39:30Z
2022-03-31T04:40:56Z,42.805,6.029,13.3026,4.60076,2470.343,2022-3-31T06:42:33Z
2022-03-31T04:43:59Z,42.805,6.029,13.3034,4.60079,2470.38,2022-3-31T06:45:36Z
2022-03-31T04:47:02Z,42.805,6.029,13.3025,4.60078,2470.343,2022-3-31T06:48:39Z
2022-03-31T04:50:05Z,42.805,6.029,13.3029,4.60084,2470.357,2022-3-31T06:51:42Z
2022-03-31T04:53:08Z,42.805,6.029,13.3032,4.60079,2470.32,2022-3-31T06:54:45Z
2022-03-31T04:56:11Z,42.805,6.029,13.3033,4.60086,2470.343,2022-3-31T06:57:49Z
2022-03-31T04:59:15Z,42.805,6.029,13.3031,4.60087,2470.357,2022-3-31T07:00:52Z
2022-03-31T05:02:18Z,42.805,6.029,13.3032,4.60085,2470.343,2022-3-31T07:03:55Z
2022-03-31T05:05:21Z,42.805,6.029,13.3033,4.60082,2470.38,2022-3-31T07:06:58Z
2022-03-31T05:08:24Z,42.805,6.029,13.3027,4.60078,2470.366,2022-3-31T07:10:01Z
2022-03-31T05:11:27Z,42.805,6.029,13.3036,4.60082,2470.366,2022-3-31T07:13:04Z
2022-03-31T05:14:30Z,42.805,6.029,13.3031,4.60081,2470.38,2022-3-31T07:16:07Z
2022-03-31T05:17:33Z,42.805,6.029,13.3031,4.60079,2470.357,2022-3-31T07:19:10Z
2022-03-31T05:20:36Z,42.805,6.029,13.3036,4.60079,2470.39,2022-3-31T07:22:14Z
2022-03-31T05:23:40Z,42.805,6.029,13.3038,4.60077,2470.357,2022-3-31T07:25:17Z
2022-03-31T05:26:43Z,42.805,6.029,13.3037,4.60084,2470.404,2022-3-31T07:28:20Z
2022-03-31T05:29:46Z,42.805,6.029,13.3034,4.60081,2470.404,2022-3-31T07:31:23Z
2022-03-31T05:32:49Z,42.805,6.029,13.3034,4.60084,2470.404,2022-3-31T07:34:26Z
2022-03-31T05:35:52Z,42.805,6.029,13.3033,4.60080,2470.39,2022-3-31T07:37:29Z
2022-03-31T05:38:55Z,42.805,6.029,13.3040,4.60094,2470.38,2022-3-31T07:40:32Z
2022-03-31T05:41:58Z,42.805,6.029,13.3037,4.60084,2470.404,2022-3-31T07:43:35Z
2022-03-31T05:45:01Z,42.805,6.029,13.3032,4.60078,2470.343,2022-3-31T07:46:39Z
2022-03-31T05:48:04Z,42.805,6.029,13.3031,4.60077,2470.404,2022-3-31T07:49:42Z
2022-03-31T05:51:08Z,42.805,6.029,13.3034,4.60079,2470.404,2022-3-31T07:52:45Z
2022-03-31T05:54:11Z,42.805,6.029,13.3039,4.60081,2470.366,2022-3-31T07:55:48Z
2022-03-31T05:57:14Z,42.805,6.029,13.3039,4.60091,2470.39,2022-3-31T07:58:51Z
2022-03-31T06:00:17Z,42.805,6.029,13.3038,4.60089,2470.366,2022-3-31T08:01:54Z
2022-03-31T06:03:20Z,42.805,6.029,13.3036,4.60079,2470.38,2022-3-31T08:04:57Z
2022-03-31T06:06:23Z,42.805,6.029,13.3040,4.60089,2470.366,2022-3-31T08:08:00Z
2022-03-31T06:09:26Z,42.805,6.029,13.3036,4.60084,2470.404,2022-3-31T08:11:03Z
2022-03-31T06:12:29Z,42.805,6.029,13.3034,4.60089,2470.366,2022-3-31T08:14:07Z
2022-03-31T06:15:33Z,42.805,6.029,13.3036,4.60081,2470.38,2022-3-31T08:17:10Z
2022-03-31T06:18:36Z,42.805,6.029,13.3031,4.60084,2470.404,2022-3-31T08:20:13Z
2022-03-31T06:21:39Z,42.805,6.029,13.3041,4.60084,2470.404,2022-3-31T08:23:16Z
2022-03-31T06:24:42Z,42.805,6.029,13.3041,4.60084,2470.427,2022-3-31T08:26:19Z
2022-03-31T06:27:45Z,42.805,6.029,13.3039,4.60081,2470.39,2022-3-31T08:29:22Z
2022-03-31T06:30:48Z,42.805,6.029,13.3039,4.60087,2470.427,2022-3-31T08:32:25Z
2022-03-31T06:33:51Z,42.805,6.029,13.3035,4.60083,2470.39,2022-3-31T08:35:28Z
2022-03-31T06:36:54Z,42.805,6.029,13.3041,4.60084,2470.413,2022-3-31T08:38:32Z
2022-03-31T06:39:58Z,42.805,6.029,13.3046,4.60085,2470.427,2022-3-31T08:41:35Z
2022-03-31T06:43:01Z,42.805,6.029,13.3041,4.60080,2470.413,2022-3-31T08:44:38Z
2022-03-31T06:46:04Z,42.805,6.029,13.3035,4.60082,2470.413,2022-3-31T08:47:41Z
2022-03-31T06:49:07Z,42.805,6.029,13.3039,4.60089,2470.366,2022-3-31T08:50:44Z
2022-03-31T06:52:10Z,42.805,6.029,13.3041,4.60084,2470.427,2022-3-31T08:53:47Z
2022-03-31T06:55:13Z,42.805,6.029,13.3034,4.60084,2470.39,2022-3-31T08:56:50Z
2022-03-31T06:58:16Z,42.805,6.029,13.3036,4.60084,2470.404,2022-3-31T08:59:53Z
2022-03-31T07:01:19Z,42.805,6.029,13.3035,4.60081,2470.39,2022-3-31T09:02:57Z
2022-03-31T07:04:23Z,42.805,6.029,13.3036,4.60082,2470.413,2022-3-31T09:06:00Z
2022-03-31T07:07:26Z,42.805,6.029,13.3039,4.60082,2470.404,2022-3-31T09:09:03Z
2022-03-31T07:10:29Z,42.805,6.029,13.3038,4.60091,2470.39,2022-3-31T09:12:06Z
2022-03-31T07:13:32Z,42.805,6.029,13.3041,4.60099,2470.45,2022-3-31T09:15:09Z
2022-03-31T07:16:35Z,42.805,6.029,13.3036,4.60088,2470.39,2022-3-31T09:18:12Z
2022-03-31T07:19:38Z,42.805,6.029,13.3041,4.60087,2470.39,2022-3-31T09:21:15Z
2022-03-31T07:22:41Z,42.805,6.029,13.3039,4.60081,2470.427,2022-3-31T09:24:18Z
2022-03-31T07:25:44Z,42.805,6.029,13.3039,4.60089,2470.404,2022-3-31T09:27:22Z
2022-03-31T07:28:47Z,42.805,6.029,13.3039,4.60082,2470.413,2022-3-31T09:30:25Z
2022-03-31T07:31:51Z,42.805,6.029,13.3042,4.60087,2470.404,2022-3-31T09:33:28Z
2022-03-31T07:34:54Z,42.805,6.029,13.3045,4.60090,2470.38,2022-3-31T09:36:31Z
2022-03-31T07:37:57Z,42.805,6.029,13.3039,4.60090,2470.427,2022-3-31T09:39:34Z
2022-03-31T07:41:00Z,42.805,6.029,13.3036,4.60094,2470.427,2022-3-31T09:42:37Z
2022-03-31T07:44:03Z,42.805,6.029,13.3037,4.60108,2470.404,2022-3-31T09:45:40Z
2022-03-31T07:47:06Z,42.805,6.029,13.3039,4.60085,2470.366,2022-3-31T09:48:43Z
2022-03-31T07:50:09Z,42.805,6.029,13.3045,4.60085,2470.39,2022-3-31T09:51:46Z
2022-03-31T07:53:12Z,42.805,6.029,13.3039,4.60090,2470.357,2022-3-31T09:54:50Z
2022-03-31T07:56:16Z,42.805,6.029,13.3037,4.60094,2470.366,2022-3-31T09:57:53Z
2022-03-31T07:59:19Z,42.805,6.029,13.3039,4.60084,2470.366,2022-3-31T10:00:56Z
2022-03-31T08:02:22Z,42.805,6.029,13.3041,4.60091,2470.404,2022-3-31T10:03:59Z
2022-03-31T08:05:25Z,42.805,6.029,13.3041,4.60094,2470.366,2022-3-31T10:07:02Z
2022-03-31T08:08:28Z,42.805,6.029,13.3043,4.60107,2470.38,2022-3-31T10:10:05Z
2022-03-31T08:11:31Z,42.805,6.029,13.3042,4.60093,2470.353,2022-3-31T10:13:08Z
2022-03-31T08:14:34Z,42.805,6.029,13.3041,4.60083,2470.39,2022-3-31T10:16:11Z
2022-03-31T08:17:37Z,42.805,6.029,13.3042,4.60090,2470.39,2022-3-31T10:19:15Z
2022-03-31T08:20:41Z,42.805,6.029,13.3039,4.60084,2470.404,2022-3-31T10:22:18Z
2022-03-31T08:23:44Z,42.805,6.029,13.3039,4.60088,2470.39,2022-3-31T10:25:21Z
2022-03-31T08:26:47Z,42.805,6.029,13.3039,4.60085,2470.366,2022-3-31T10:28:24Z
2022-03-31T08:29:50Z,42.805,6.029,13.3041,4.60090,2470.366,2022-3-31T10:31:27Z
2022-03-31T08:32:53Z,42.805,6.029,13.3041,4.60088,2470.404,2022-3-31T10:34:30Z
2022-03-31T08:35:56Z,42.805,6.029,13.3041,4.60087,2470.366,2022-3-31T10:37:33Z
2022-03-31T08:38:59Z,42.805,6.029,13.3043,4.60089,2470.357,2022-3-31T10:40:37Z
2022-03-31T08:42:02Z,42.805,6.029,13.3035,4.60082,2470.366,2022-3-31T10:43:40Z
2022-03-31T08:45:06Z,42.805,6.029,13.3043,4.60087,2470.366,2022-3-31T10:46:43Z
2022-03-31T08:48:09Z,42.805,6.029,13.3039,4.60093,2470.38,2022-3-31T10:49:46Z
2022-03-31T08:51:12Z,42.805,6.029,13.3043,4.60099,2470.357,2022-3-31T10:52:49Z
2022-03-31T08:54:15Z,42.805,6.029,13.3040,4.60085,2470.38,2022-3-31T10:55:52Z
2022-03-31T08:57:18Z,42.805,6.029,13.3041,4.60093,2470.334,2022-3-31T10:58:55Z
2022-03-31T09:00:21Z,42.805,6.029,13.3041,4.60091,2470.38,2022-3-31T11:01:58Z
2022-03-31T09:03:24Z,42.805,6.029,13.3042,4.60085,2470.343,2022-3-31T11:05:01Z
2022-03-31T09:06:27Z,42.805,6.029,13.3036,4.60085,2470.357,2022-3-31T11:08:05Z
2022-03-31T09:09:31Z,42.805,6.029,13.3041,4.60084,2470.357,2022-3-31T11:11:08Z
2022-03-31T09:12:34Z,42.805,6.029,13.3039,4.60086,2470.38,2022-3-31T11:14:11Z
2022-03-31T09:15:37Z,42.805,6.029,13.3036,4.60097,2470.334,2022-3-31T11:17:14Z
2022-03-31T09:18:40Z,42.805,6.029,13.3052,4.60094,2470.334,2022-3-31T11:20:17Z
2022-03-31T09:21:43Z,42.805,6.029,13.3039,4.60092,2470.32,2022-3-31T11:23:20Z
2022-03-31T09:24:46Z,42.805,6.029,13.3044,4.60089,2470.334,2022-3-31T11:26:23Z
2022-03-31T09:27:49Z,42.805,6.029,13.3036,4.60088,2470.343,2022-3-31T11:29:27Z
2022-03-31T09:30:52Z,42.805,6.029,13.3034,4.60092,2470.32,2022-3-31T11:32:30Z
2022-03-31T09:33:56Z,42.805,6.029,13.3041,4.60091,2470.32,2022-3-31T11:35:33Z
2022-03-31T09:36:59Z,42.805,6.029,13.3043,4.60087,2470.343,2022-3-31T11:38:36Z
2022-03-31T09:40:02Z,42.805,6.029,13.3039,4.60084,2470.31,2022-3-31T11:41:39Z
2022-03-31T09:43:05Z,42.805,6.029,13.3037,4.60086,2470.343,2022-3-31T11:44:42Z
2022-03-31T09:46:08Z,42.805,6.029,13.3041,4.60087,2470.32,2022-3-31T11:47:45Z
2022-03-31T09:49:11Z,42.805,6.029,13.3043,4.60093,2470.334,2022-3-31T11:50:48Z
2022-03-31T09:52:14Z,42.805,6.029,13.3041,4.60092,2470.297,2022-3-31T11:53:52Z
2022-03-31T09:55:17Z,42.805,6.029,13.3044,4.60087,2470.334,2022-3-31T11:56:55Z
2022-03-31T09:58:21Z,42.805,6.029,13.3036,4.60090,2470.297,2022-3-31T11:59:58Z
2022-03-31T10:01:24Z,42.805,6.029,13.3038,4.60088,2470.357,2022-3-31T12:03:01Z
2022-03-31T10:04:27Z,42.805,6.029,13.3032,4.60082,2470.297,2022-3-31T12:06:04Z
2022-03-31T10:07:30Z,42.805,6.029,13.3042,4.60087,2470.334,2022-3-31T12:09:07Z
2022-03-31T10:10:33Z,42.805,6.029,13.3039,4.60087,2470.334,2022-3-31T12:12:10Z
2022-03-31T10:13:36Z,42.805,6.029,13.3041,4.60089,2470.273,2022-3-31T12:15:13Z
2022-03-31T10:16:39Z,42.805,6.029,13.3044,4.60082,2470.287,2022-3-31T12:18:17Z
2022-03-31T10:19:42Z,42.805,6.029,13.3045,4.60091,2470.287,2022-3-31T12:21:20Z
2022-03-31T10:22:46Z,42.805,6.029,13.3038,4.60102,2470.273,2022-3-31T12:24:23Z
2022-03-31T10:25:49Z,42.805,6.029,13.3038,4.60097,2470.287,2022-3-31T12:27:26Z
2022-03-31T10:28:52Z,42.805,6.029,13.3038,4.60093,2470.297,2022-3-31T12:30:29Z
2022-03-31T10:31:55Z,42.805,6.029,13.3036,4.60083,2470.273,2022-3-31T12:33:32Z
2022-03-31T10:34:58Z,42.805,6.029,13.3037,4.60085,2470.297,2022-3-31T12:36:35Z
2022-03-31T10:38:01Z,42.805,6.029,13.3038,4.60080,2470.287,2022-3-31T12:39:38Z
2022-03-31T10:41:04Z,42.805,6.029,13.3037,4.60084,2470.25,2022-3-31T12:42:42Z
2022-03-31T10:44:08Z,42.805,6.029,13.3040,4.60089,2470.273,2022-3-31T12:45:45Z
2022-03-31T10:47:11Z,42.805,6.029,13.3043,4.60092,2470.273,2022-3-31T12:48:48Z
2022-03-31T10:50:14Z,42.805,6.029,13.3038,4.60098,2470.24,2022-3-31T12:51:51Z
2022-03-31T10:53:17Z,42.805,6.029,13.3037,4.60112,2470.25,2022-3-31T12:54:54Z
2022-03-31T10:56:20Z,42.805,6.029,13.3034,4.60080,2470.287,2022-3-31T12:57:57Z
2022-03-31T10:59:23Z,42.805,6.029,13.3037,4.60080,2470.217,2022-3-31T13:01:00Z
2022-03-31T11:02:26Z,42.805,6.029,13.3037,4.60079,2470.24,2022-3-31T13:04:03Z
2022-03-31T11:05:29Z,42.805,6.029,13.3035,4.60087,2470.24,2022-3-31T13:07:07Z
2022-03-31T11:08:33Z,42.805,6.029,13.3036,4.60081,2470.227,2022-3-31T13:10:10Z
2022-03-31T11:11:36Z,42.805,6.029,13.3041,4.60099,2470.264,2022-3-31T13:13:13Z
2022-03-31T11:14:39Z,42.805,6.029,13.3035,4.60084,2470.227,2022-3-31T13:16:16Z
2022-03-31T11:17:42Z,42.805,6.029,13.3041,4.60085,2470.227,2022-3-31T13:19:19Z
2022-03-31T11:20:45Z,42.805,6.029,13.3043,4.60086,2470.24,2022-3-31T13:22:22Z
2022-03-31T11:23:48Z,42.805,6.029,13.3038,4.60084,2470.24,2022-3-31T13:25:25Z
2022-03-31T11:26:51Z,42.805,6.029,13.3038,4.60081,2470.227,2022-3-31T13:28:28Z
2022-03-31T11:29:54Z,42.805,6.029,13.3036,4.60081,2470.18,2022-3-31T13:31:32Z
2022-03-31T11:32:58Z,42.805,6.029,13.3036,4.60082,2470.203,2022-3-31T13:34:35Z
2022-03-31T11:36:01Z,42.805,6.029,13.3045,4.60084,2470.227,2022-3-31T13:37:38Z
2022-03-31T11:39:04Z,42.805,6.029,13.3040,4.60092,2470.227,2022-3-31T13:40:41Z
2022-03-31T11:42:07Z,42.805,6.029,13.3046,4.60083,2470.227,2022-3-31T13:43:44Z
2022-03-31T11:45:10Z,42.805,6.029,13.3036,4.60092,2470.227,2022-3-31T13:46:47Z
2022-03-31T11:48:13Z,42.805,6.029,13.3039,4.60084,2470.156,2022-3-31T13:49:50Z
2022-03-31T11:51:16Z,42.805,6.029,13.3036,4.60086,2470.203,2022-3-31T13:52:53Z
2022-03-31T11:54:19Z,42.805,6.029,13.3038,4.60096,2470.203,2022-3-31T13:55:57Z
2022-03-31T11:57:23Z,42.805,6.029,13.3039,4.60093,2470.217,2022-3-31T13:59:00Z
2022-03-31T12:00:26Z,42.805,6.029,13.3034,4.60080,2470.203,2022-3-31T14:02:03Z
2022-03-31T12:03:29Z,42.805,6.029,13.3040,4.60092,2470.18,2022-3-31T14:05:06Z
2022-03-31T12:06:32Z,42.805,6.029,13.3037,4.60084,2470.203,2022-3-31T14:08:09Z
2022-03-31T12:09:35Z,42.805,6.029,13.3040,4.60093,2470.217,2022-3-31T14:11:12Z
2022-03-31T12:12:38Z,42.805,6.029,13.3037,4.60092,2470.194,2022-3-31T14:14:15Z
2022-03-31T12:15:41Z,42.805,6.029,13.3048,4.60097,2470.194,2022-3-31T14:17:18Z
2022-03-31T12:18:44Z,42.805,6.029,13.3038,4.60094,2470.18,2022-3-31T14:20:22Z
2022-03-31T12:21:48Z,42.805,6.029,13.3041,4.60088,2470.156,2022-3-31T14:23:25Z
2022-03-31T12:24:51Z,42.805,6.029,13.3038,4.60091,2470.171,2022-3-31T14:26:28Z
2022-03-31T12:27:54Z,42.805,6.029,13.3035,4.60092,2470.217,2022-3-31T14:29:31Z
2022-03-31T12:30:57Z,42.805,6.029,13.3046,4.60086,2470.171,2022-3-31T14:32:34Z
2022-03-31T12:34:00Z,42.805,6.029,13.3036,4.60085,2470.156,2022-3-31T14:35:37Z
2022-03-31T12:37:03Z,42.805,6.029,13.3043,4.60098,2470.194,2022-3-31T14:38:40Z
2022-03-31T12:40:06Z,42.805,6.029,13.3036,4.60097,2470.156,2022-3-31T14:41:44Z
2022-03-31T12:43:09Z,42.805,6.029,13.3036,4.60079,2470.147,2022-3-31T14:44:47Z
2022-03-31T12:46:13Z,42.805,6.029,13.3033,4.60087,2470.156,2022-3-31T14:47:50Z
2022-03-31T12:49:16Z,42.805,6.029,13.3041,4.60089,2470.156,2022-3-31T14:50:53Z
2022-03-31T12:52:19Z,42.805,6.029,13.3040,4.60084,2470.18,2022-3-31T14:53:56Z
2022-03-31T12:55:22Z,42.805,6.029,13.3041,4.60087,2470.147,2022-3-31T14:56:59Z
2022-03-31T12:58:25Z,42.805,6.029,13.3041,4.60098,2470.156,2022-3-31T15:00:02Z
2022-03-31T13:01:28Z,42.805,6.029,13.3034,4.60087,2470.217,2022-3-31T15:03:05Z
2022-03-31T13:04:31Z,42.805,6.029,13.3041,4.60089,2470.171,2022-3-31T15:06:09Z
2022-03-31T13:07:34Z,42.805,6.029,13.3042,4.60078,2470.133,2022-3-31T15:09:12Z
2022-03-31T13:10:38Z,42.805,6.029,13.3037,4.60106,2470.156,2022-3-31T15:12:15Z
2022-03-31T13:13:41Z,42.805,6.029,13.3036,4.60081,2470.156,2022-3-31T15:15:18Z
2022-03-31T13:16:44Z,42.805,6.029,13.3042,4.60087,2470.156,2022-3-31T15:18:21Z
2022-03-31T13:19:47Z,42.805,6.029,13.3039,4.60092,2470.194,2022-3-31T15:21:24Z
2022-03-31T13:22:50Z,42.805,6.029,13.3047,4.60101,2470.133,2022-3-31T15:24:27Z
2022-03-31T13:25:53Z,42.805,6.029,13.3035,4.60088,2470.18,2022-3-31T15:27:30Z
2022-03-31T13:28:56Z,42.805,6.029,13.3041,4.60088,2470.156,2022-3-31T15:30:34Z
2022-03-31T13:31:59Z,42.805,6.029,13.3034,4.60089,2470.156,2022-3-31T15:33:37Z
2022-03-31T13:35:03Z,42.805,6.029,13.3034,4.60097,2470.194,2022-3-31T15:36:40Z
2022-03-31T13:38:06Z,42.805,6.029,13.3046,4.60094,2470.171,2022-3-31T15:39:43Z
2022-03-31T13:41:09Z,42.805,6.029,13.3040,4.60096,2470.171,2022-3-31T15:42:46Z
2022-03-31T13:44:12Z,42.805,6.029,13.3034,4.60089,2470.156,2022-3-31T15:45:49Z
2022-03-31T13:47:15Z,42.805,6.029,13.3037,4.60087,2470.133,2022-3-31T15:48:52Z
2022-03-31T13:50:18Z,42.805,6.029,13.3039,4.60091,2470.203,2022-3-31T15:51:55Z
2022-03-31T13:53:21Z,42.805,6.029,13.3039,4.60080,2470.156,2022-3-31T15:54:59Z
2022-03-31T13:56:24Z,42.805,6.029,13.3039,4.60086,2470.156,2022-3-31T15:58:02Z
2022-03-31T13:59:28Z,42.805,6.029,13.3033,4.60084,2470.171,2022-3-31T16:01:05Z
2022-03-31T14:02:31Z,42.805,6.029,13.3036,4.60095,2470.133,2022-3-31T16:04:08Z
2022-03-31T14:05:34Z,42.805,6.029,13.3041,4.60101,2470.133,2022-3-31T16:07:11Z
2022-03-31T14:08:37Z,42.805,6.029,13.3036,4.60083,2470.171,2022-3-31T16:10:14Z
2022-03-31T14:11:40Z,42.805,6.029,13.3038,4.60107,2470.171,2022-3-31T16:13:17Z
2022-03-31T14:14:43Z,42.805,6.029,13.3034,4.60084,2470.194,2022-3-31T16:16:20Z
2022-03-31T14:17:46Z,42.805,6.029,13.3041,4.60101,2470.171,2022-3-31T16:19:24Z
2022-03-31T14:20:49Z,42.805,6.029,13.3039,4.60093,2470.156,2022-3-31T16:22:27Z
2022-03-31T14:23:53Z,42.805,6.029,13.3041,4.60102,2470.203,2022-3-31T16:25:30Z
2022-03-31T14:26:56Z,42.805,6.029,13.3039,4.60089,2470.18,2022-3-31T16:28:33Z
2022-03-31T14:29:59Z,42.805,6.029,13.3041,4.60098,2470.171,2022-3-31T16:31:36Z
2022-03-31T14:33:02Z,42.805,6.029,13.3039,4.60079,2470.171,2022-3-31T16:34:39Z
2022-03-31T14:36:05Z,42.805,6.029,13.3046,4.60099,2470.194,2022-3-31T16:37:42Z
2022-03-31T14:39:08Z,42.805,6.029,13.3042,4.60087,2470.156,2022-3-31T16:40:45Z
2022-03-31T14:42:11Z,42.805,6.029,13.3046,4.60094,2470.133,2022-3-31T16:43:49Z
2022-03-31T14:45:14Z,42.805,6.029,13.3039,4.60093,2470.194,2022-3-31T16:46:52Z
2022-03-31T14:48:18Z,42.805,6.029,13.3045,4.60102,2470.217,2022-3-31T16:49:55Z
2022-03-31T14:51:21Z,42.805,6.029,13.3039,4.60099,2470.18,2022-3-31T16:52:58Z
2022-03-31T14:54:24Z,42.805,6.029,13.3039,4.60094,2470.156,2022-3-31T16:56:01Z
2022-03-31T14:57:27Z,42.805,6.029,13.3043,4.60098,2470.194,2022-3-31T16:59:04Z
2022-03-31T15:00:30Z,42.805,6.029,13.3047,4.60113,2470.18,2022-3-31T17:02:07Z
2022-03-31T15:03:33Z,42.805,6.029,13.3042,4.60092,2470.217,2022-3-31T17:05:10Z
2022-03-31T15:06:36Z,42.805,6.029,13.3043,4.60101,2470.194,2022-3-31T17:08:14Z
2022-03-31T15:09:39Z,42.805,6.029,13.3034,4.60087,2470.203,2022-3-31T17:11:17Z